SCP
0 0 0 0 0 0 0 0 0 0 0 0 0 0 0 0 0 0 0 0 0 0 0 0 0 0 0 0 0 0 0 0 0 0 0 0 0 0 0 0 0 0 0
0 0 0 0 0 0 0 0 0 0 0 0 0 0 0 0 0 0 0 0 0 0 0 0 0 0 0 0 0 0 0 0 0 0 0 0 0 0 0 0 0 0 0
0 0 0 0 0 0 0 0 0 0 0 0 0 0 -0 0 0 0 0 0 0 0 0 0 0 0 0 0 0 0 0 0 0 0 0 0 0 0 0 0 0 0 0
0 0 0 0 0 0 0 0 0 0 0 0 0 0 0 0 0 0 0 0 0 0 0 0 0 0 0 0 0 0 0 0 0 0 0 0 0 0 0 0 0 0 0
0 0 0 0 0 0 0 1 0 0 0 0 0 0 0 0 0 0 0 0 0 0 0 0 0 0 0 0 0 0 0 0 0 0 0 0 0 0 0 -0 0 0 0
0 0 0 0 0 0 0 0 0 0 0 0 0 0 0 0 0 0 0 0 0 0 0 0 0 0 0 0 0 0 0 0 0 0 0 0 0 0 0 0 0 0 0
0 0 0 0 0 0 0 0 0 0 0 0 0 0 0 0 0 -0 0 0 0 0 0 0 0 0 0 0 0 0 0 0 0 0 0 0 0 0 0 0 0 0 0
0 0 0 0 0 0 0 0 0 0 0 0 0 0 0 0 0 0 0 0 0 0 0 0 0 0 0 0 0 0 0 0 0 0 0 0 0 0 0 0 0 0 0
0 0 0 0 0 0 0 0 0 0 0 0 0 0 -0 0 0 0 0 0 0 0 0 0 0 0 0 0 0 0 0 0 0 -0 0 0 0 0 0 0 0 0 0
0 0 0 0 0 0 0 0 0 0 0 0 0 0 0 0 0 0 0 0 0 0 0 0 0 0 0 0 0 0 0 0 -0 0 0 0 0 0 0 0 0 0 0
0 0 0 0 0 0 0 0 0 0 0 0 0 0 0 0 0 0 0 0 0 0 0 0 0 0 0 0 0 0 0 0 0 0 0 -0 0 0 0 0 0 0 0
0 0 0 0 0 0 0 0 0 0 0 0 0 0 0 0 0 0 0 0 0 0 0 0 0 0 0 -0 0 0 0 0 0 0 0 0 0 0 0 0 0 0 0
0 0 0 0 0 0 0 0 0 0 0 0 0 0 0 0 0 0 0 0 0 0 0 0 0 0 0 -0 0 0 0 0 0 0 0 0 0 0 0 0 0 0 0
0 0 0 0 0 0 0 0 0 0 0 0 0 0 0 0 0 0 0 0 0 0 -0 -0 0 0 0 -0 0 0 0 0 0 0 -0 0 -0 0 -0 -0 0 0 0
0 0 0 0 0 0 0 0 0 0 0 0 0 0 0 0 -0 -0 -0 0 0 -0 0 0 0 0 0 0 0 0 0 0 0 0 0 0 -0 -0 -0 -0 -0 0 0
0 0 0 0 0 0 0 0 0 0 0 0 0 0 0 -0 -0 -0 -0 -0 -0 0 0 0 0 0 0 0 0 0 0 0 0 0 -0 0 -0 0 0 0 0 0 0
0 0 0 0 0 0 0 0 0 0 0 0 0 0 0 -0 -0 -0 -0 -0 0 0 0 0 0 0 -0 -0 0 -0 0 0 0 0 0 0 0 0 0 0 0 0 0
0 0 0 0 0 0 0 0 0 0 0 0 0 0 0 -0 0 -0 -0 -0 -0 0 0 0 0 0 0 0 0 0 0 0 0 0 0 0 -0 0 0 0 0 0 0
0 0 0 0 0 0 0 0 0 0 0 0 0 0 0 0 0 0 0 -0 -0 0 0 0 0 0 0 0 0 0 0 0 0 0 0 0 0 0 0 0 0 0 0
0 0 0 0 0 0 0 0 0 0 0 0 0 0 0 0 0 0 0 -0 -0 0 0 0 0 0 0 0 0 0 0 0 0 0 0 0 0 0 0 0 0 0 0
0 0 0 0 0 0 0 0 0 0 0 0 0 0 0 0 0 0 0 0 -0 0 0 0 0 0 0 0 0 0 0 0 0 0 0 0 0 0 0 0 0 0 0
0 0 0 0 0 0 0 0 0 0 0 0 0 0 0 0 0 0 0 0 -0 -0 0 0 0 0 0 0 -0 0 0 0 0 0 0 0 0 0 0 0 -0 0 0
0 0 0 0 0 0 0 0 0 0 0 0 0 0 0 0 0 0 0 0 0 0 -0 0 0 0 0 0 0 0 -0 -0 0 0 0 -0 0 0 0 0 0 0 0
0 0 0 0 0 0 0 0 0 0 0 0 0 0 0 0 0 0 0 0 0 0 0 -0 0 0 0 0 0 0 0 0 -0 0 0 0 0 0 0 0 0 0 0
0 0 0 0 0 0 0 0 0 0 0 0 0 0 0 0 0 0 0 0 -0 0 0 -0 0 0 0 0 0 0 0 0 0 0 0 0 0 0 0 0 0 0 0
0 0 0 0 0 0 0 0 0 0 0 0 0 0 0 0 0 0 0 0 -0 0 0 -0 0 0 0 0 0 0 0 0 0 0 0 0 0 0 0 0 0 -0 -0
Wind_Speed_500mb
19 26 21 20 21 25 32 33 35 40 43 38 29 24 40 33 18 30 34 38 39 31 19 27 22 28 33 35 26 34 37 31 29 35 34 36 30 14 26 35 37 41 36
53 39 33 24 24 35 44 40 42 28 41 33 30 17 32 38 30 37 46 46 40 28 23 25 29 29 34 26 25 33 36 34 23 28 34 25 36 13 15 19 24 32 40
27 39 34 26 24 25 31 36 40 36 24 39 25 33 35 39 32 29 40 42 35 35 37 34 35 34 32 28 27 37 38 32 26 19 22 15 11 46 34 30 29 30 33
6 19 25 8 12 16 17 21 23 22 26 46 40 37 36 40 38 39 36 35 35 46 41 27 34 33 28 32 32 27 30 30 31 24 22 21 25 18 33 34 39 36 37
12 16 5 9 6 6 17 22 20 15 19 24 41 41 38 44 41 34 34 39 38 31 25 25 24 28 26 27 32 31 24 27 31 28 28 24 29 30 35 58 57 48 45
17 15 13 16 17 19 20 23 24 17 13 13 28 40 39 49 45 41 36 30 26 28 30 33 28 22 22 25 26 24 21 23 27 26 26 31 34 40 43 45 53 56 45
29 20 20 20 17 19 25 27 26 26 22 25 29 31 43 41 54 48 40 33 26 26 27 24 21 16 14 21 29 18 18 20 27 28 30 32 35 38 42 46 51 40 42
15 13 20 13 20 22 20 15 22 30 36 36 28 28 34 36 52 36 38 35 30 26 36 32 20 23 19 18 29 18 17 24 31 34 33 33 34 38 44 47 41 35 37
6 4 12 20 14 15 25 26 28 25 26 32 33 28 43 44 34 43 42 37 42 38 31 31 27 18 17 21 23 24 17 26 31 29 27 30 33 33 36 43 28 21 14
12 19 20 22 22 23 23 20 24 31 33 33 39 39 38 47 42 33 39 48 49 35 34 35 31 29 22 16 17 18 19 28 25 19 23 25 23 24 32 21 12 12 17
15 14 19 19 14 18 22 22 28 26 26 32 43 43 42 47 43 39 47 43 39 43 37 33 24 30 23 18 12 18 19 11 10 15 23 28 21 21 23 13 6 9 15
8 12 13 21 23 29 30 26 31 35 34 42 43 46 45 49 55 48 44 42 44 41 39 35 26 28 24 20 15 15 16 10 7 12 22 23 21 18 20 22 7 12 11
3 11 13 24 26 23 17 23 23 30 37 35 43 48 50 57 57 54 55 31 35 33 34 31 32 25 20 19 19 18 16 9 6 8 16 21 20 16 18 14 13 8 11
11 17 28 30 20 18 25 22 25 28 33 46 55 48 47 53 56 61 51 31 29 30 34 40 34 29 25 22 19 18 21 8 5 5 10 19 22 22 18 10 13 11 19
22 28 24 23 24 27 29 32 34 36 45 48 44 42 47 45 51 59 47 34 26 23 25 39 47 27 24 25 18 22 16 6 12 7 6 11 20 23 17 15 17 21 32
23 22 28 29 32 28 27 29 32 38 38 42 44 35 46 47 55 53 46 40 20 21 24 21 27 28 30 29 16 25 15 8 15 5 2 2 10 19 21 23 21 22 18
22 25 29 36 32 25 23 27 32 41 46 40 35 37 44 55 57 48 39 32 13 19 20 20 19 24 24 29 23 25 18 15 12 6 6 5 9 13 17 17 14 12 7
23 27 29 32 30 29 34 37 47 45 45 39 34 41 49 50 51 42 35 27 31 17 19 21 19 21 26 28 27 29 23 18 12 9 9 10 9 6 8 9 14 15 22
22 26 29 26 30 35 39 48 47 39 39 45 43 41 41 42 50 41 38 29 31 20 19 23 25 26 26 34 31 26 19 23 18 13 9 11 2 2 6 4 8 10 12
22 24 25 28 29 37 43 37 36 39 44 45 44 42 38 40 41 45 37 31 24 18 19 17 22 23 26 29 22 20 18 26 16 13 11 10 8 9 12 13 9 8 10
21 27 22 20 26 35 40 38 38 48 39 41 41 43 36 36 38 38 37 35 23 17 22 14 16 19 25 26 24 21 21 29 16 14 17 14 7 3 10 15 13 15 9
27 23 19 26 36 40 43 43 42 40 45 38 38 36 34 38 35 35 35 36 25 16 18 13 22 12 22 29 31 25 22 28 19 16 15 21 21 7 12 12 14 16 14
19 21 25 34 39 42 41 51 34 36 44 42 40 40 37 40 35 32 37 27 21 25 18 13 1 12 18 34 35 30 23 26 30 18 15 20 21 18 13 12 12 9 22
17 22 31 35 41 36 41 52 41 40 40 40 37 35 39 37 28 22 32 20 26 20 20 11 10 10 18 29 26 26 27 25 28 21 12 16 20 18 18 22 21 17 21
15 22 28 36 40 38 42 44 42 46 44 41 35 34 39 40 36 23 27 19 17 16 18 21 14 5 6 32 24 31 25 24 23 26 26 22 24 20 15 10 16 18 17
12 22 30 37 43 36 35 37 42 42 38 42 41 28 34 43 29 31 29 14 12 20 11 25 12 11 5 28 15 41 30 28 23 23 34 26 20 14 12 16 15 21 23
Wind_Direction_500mb
240 238 238 237 246 241 252 260 246 245 250 280 289 308 287 301 292 280 281 282 288 301 284 294 291 291 297 301 298 296 301 312 313 308 302 305 327 298 257 277 261 261 271
235 232 239 239 256 245 251 258 261 284 276 271 252 274 283 286 300 285 278 285 293 294 274 280 280 291 295 293 298 302 303 308 323 312 316 323 329 286 254 287 264 258 261
218 217 222 232 251 260 259 266 288 288 284 248 250 265 256 271 284 294 279 296 294 306 303 283 280 280 283 288 296 292 300 299 310 308 314 313 305 312 315 300 271 261 260
157 194 192 257 247 284 336 302 298 303 282 277 243 281 251 265 274 279 281 284 285 291 296 287 270 283 278 279 290 293 297 296 303 302 298 291 308 317 313 313 309 275 265
130 182 193 36 70 354 23 10 10 339 317 306 252 282 256 256 265 273 259 273 289 286 281 288 274 289 272 277 288 298 295 295 300 294 297 288 294 299 301 307 310 302 275
111 119 62 44 53 36 18 20 7 359 330 314 311 297 262 255 263 277 278 279 279 286 284 287 288 300 291 283 297 295 294 296 299 294 283 288 290 306 311 309 306 307 295
91 87 75 60 54 20 6 5 32 21 12 343 331 310 311 273 264 264 275 278 274 279 284 288 301 318 307 303 302 290 289 301 310 303 297 288 292 298 307 317 312 307 299
47 12 358 356 352 21 26 7 358 347 351 349 342 335 343 310 285 260 265 268 261 259 274 277 289 292 282 281 293 294 305 304 305 304 308 298 301 296 308 314 309 299 299
290 314 42 61 49 13 358 349 348 356 351 334 337 344 340 327 306 281 253 279 273 282 262 259 257 285 265 292 279 282 284 293 296 300 304 307 310 308 308 315 298 280 295
48 45 27 17 356 2 7 24 19 8 359 3 2 349 343 340 322 301 278 271 279 258 265 263 262 271 268 272 282 289 279 289 291 314 331 329 327 323 328 312 308 273 280
40 33 12 13 14 0 345 341 350 350 336 337 341 341 342 337 343 323 291 278 279 255 270 261 267 257 264 263 280 290 286 295 330 327 347 349 344 346 351 352 332 298 281
17 17 348 342 328 328 311 308 321 323 327 329 342 341 346 338 338 327 319 277 271 265 261 256 270 266 260 258 269 254 273 264 298 324 349 355 2 5 8 11 16 326 265
26 6 348 340 320 320 314 329 321 329 328 329 328 334 330 333 341 334 329 287 266 269 247 255 254 245 259 239 245 250 269 237 282 337 350 7 9 17 11 15 28 37 73
52 25 350 327 355 8 358 347 334 326 322 325 325 330 334 333 338 338 330 308 283 273 251 248 246 256 252 249 236 230 253 242 225 64 20 21 23 35 36 6 59 82 89
17 354 349 5 348 337 334 331 330 327 331 336 339 334 335 325 338 338 339 315 286 280 277 241 237 246 237 216 221 243 215 204 170 110 14 29 29 40 50 59 107 112 98
355 24 32 21 9 350 346 346 339 334 331 326 327 331 344 340 343 344 336 331 267 266 280 252 244 218 241 226 221 232 251 226 171 168 352 44 47 55 65 76 108 95 90
44 26 15 9 5 359 347 347 338 332 338 339 348 343 336 338 335 341 342 342 328 302 271 255 246 221 215 209 209 224 245 218 202 203 91 105 72 60 87 103 106 79 107
25 11 359 354 342 340 342 341 341 342 338 336 349 350 340 340 342 338 339 342 324 312 288 261 249 216 238 199 207 213 226 222 196 203 139 157 91 67 68 128 103 71 89
16 3 355 342 333 340 345 339 344 337 341 347 341 339 340 339 344 340 348 337 334 306 294 236 243 225 218 214 214 224 227 213 208 194 157 163 165 69 153 135 121 73 98
10 5 356 339 333 339 341 347 344 338 339 341 344 346 332 336 344 343 343 340 334 322 308 265 227 220 210 211 205 213 212 195 192 182 181 216 279 236 195 167 164 185 112
10 1 344 352 2 351 347 352 348 345 349 342 338 342 343 348 344 344 352 353 347 324 341 233 266 240 204 193 205 215 209 204 211 214 201 214 214 235 188 192 163 172 171
2 3 344 357 349 352 346 344 342 346 345 350 346 340 353 353 349 341 347 1 18 8 328 327 244 289 214 199 206 205 207 211 216 221 232 238 221 225 186 196 217 217 217
11 352 348 348 354 348 345 346 352 351 353 354 1 357 356 355 343 338 343 342 357 12 12 358 262 269 210 205 200 202 196 205 220 229 253 220 213 210 230 209 202 194 176
359 347 349 358 358 343 339 350 356 344 338 341 346 355 354 346 359 353 349 332 350 2 5 350 349 44 179 210 197 194 199 208 214 214 189 167 190 219 237 234 226 219 195
344 336 343 351 353 349 338 343 346 345 346 343 344 343 357 354 351 347 359 354 337 337 1 8 358 314 352 191 194 189 199 209 205 202 192 197 218 229 248 235 218 220 214
323 332 334 342 343 347 337 343 346 340 340 350 351 350 354 351 355 1 5 357 358 356 17 25 29 1 302 153 194 195 203 211 220 204 211 218 224 239 221 243 232 194 183
Wind_Speed_850mb
19 26 21 20 21 25 32 33 35 40 43 38 29 24 40 33 18 30 34 38 39 31 19 27 22 28 33 35 26 34 37 31 29 35 34 36 30 14 26 35 37 41 36
53 39 33 24 24 35 44 40 42 28 41 33 30 17 32 38 30 37 46 46 40 28 23 25 29 29 34 26 25 33 36 34 23 28 34 25 36 13 15 19 24 32 40
27 39 34 26 24 25 31 36 40 36 24 39 25 33 35 39 32 29 40 42 35 35 37 34 35 34 32 28 27 37 38 32 26 19 22 15 11 46 34 30 29 30 33
6 19 25 8 12 16 17 21 23 22 26 46 40 37 36 40 38 39 36 35 35 46 41 27 34 33 28 32 32 27 30 30 31 24 22 21 25 18 33 34 39 36 37
12 16 5 9 6 6 17 22 20 15 19 24 41 41 38 44 41 34 34 39 38 31 25 25 24 28 26 27 32 31 24 27 31 28 28 24 29 30 35 58 57 48 45
17 15 13 16 17 19 20 23 24 17 13 13 28 40 39 49 45 41 36 30 26 28 30 33 28 22 22 25 26 24 21 23 27 26 26 31 34 40 43 45 53 56 45
29 20 20 20 17 19 25 27 26 26 22 25 29 31 43 41 54 48 40 33 26 26 27 24 21 16 14 21 29 18 18 20 27 28 30 32 35 38 42 46 51 40 42
15 13 20 13 20 22 20 15 22 30 36 36 28 28 34 36 52 36 38 35 30 26 36 32 20 23 19 18 29 18 17 24 31 34 33 33 34 38 44 47 41 35 37
6 4 12 20 14 15 25 26 28 25 26 32 33 28 43 44 34 43 42 37 42 38 31 31 27 18 17 21 23 24 17 26 31 29 27 30 33 33 36 43 28 21 14
12 19 20 22 22 23 23 20 24 31 33 33 39 39 38 47 42 33 39 48 49 35 34 35 31 29 22 16 17 18 19 28 25 19 23 25 23 24 32 21 12 12 17
15 14 19 19 14 18 22 22 28 26 26 32 43 43 42 47 43 39 47 43 39 43 37 33 24 30 23 18 12 18 19 11 10 15 23 28 21 21 23 13 6 9 15
8 12 13 21 23 29 30 26 31 35 34 42 43 46 45 49 55 48 44 42 44 41 39 35 26 28 24 20 15 15 16 10 7 12 22 23 21 18 20 22 7 12 11
3 11 13 24 26 23 17 23 23 30 37 35 43 48 50 57 57 54 55 31 35 33 34 31 32 25 20 19 19 18 16 9 6 8 16 21 20 16 18 14 13 8 11
11 17 28 30 20 18 25 22 25 28 33 46 55 48 47 53 56 61 51 31 29 30 34 40 34 29 25 22 19 18 21 8 5 5 10 19 22 22 18 10 13 11 19
22 28 24 23 24 27 29 32 34 36 45 48 44 42 47 45 51 59 47 34 26 23 25 39 47 27 24 25 18 22 16 6 12 7 6 11 20 23 17 15 17 21 32
23 22 28 29 32 28 27 29 32 38 38 42 44 35 46 47 55 53 46 40 20 21 24 21 27 28 30 29 16 25 15 8 15 5 2 2 10 19 21 23 21 22 18
22 25 29 36 32 25 23 27 32 41 46 40 35 37 44 55 57 48 39 32 13 19 20 20 19 24 24 29 23 25 18 15 12 6 6 5 9 13 17 17 14 12 7
23 27 29 32 30 29 34 37 47 45 45 39 34 41 49 50 51 42 35 27 31 17 19 21 19 21 26 28 27 29 23 18 12 9 9 10 9 6 8 9 14 15 22
22 26 29 26 30 35 39 48 47 39 39 45 43 41 41 42 50 41 38 29 31 20 19 23 25 26 26 34 31 26 19 23 18 13 9 11 2 2 6 4 8 10 12
22 24 25 28 29 37 43 37 36 39 44 45 44 42 38 40 41 45 37 31 24 18 19 17 22 23 26 29 22 20 18 26 16 13 11 10 8 9 12 13 9 8 10
21 27 22 20 26 35 40 38 38 48 39 41 41 43 36 36 38 38 37 35 23 17 22 14 16 19 25 26 24 21 21 29 16 14 17 14 7 3 10 15 13 15 9
27 23 19 26 36 40 43 43 42 40 45 38 38 36 34 38 35 35 35 36 25 16 18 13 22 12 22 29 31 25 22 28 19 16 15 21 21 7 12 12 14 16 14
19 21 25 34 39 42 41 51 34 36 44 42 40 40 37 40 35 32 37 27 21 25 18 13 1 12 18 34 35 30 23 26 30 18 15 20 21 18 13 12 12 9 22
17 22 31 35 41 36 41 52 41 40 40 40 37 35 39 37 28 22 32 20 26 20 20 11 10 10 18 29 26 26 27 25 28 21 12 16 20 18 18 22 21 17 21
15 22 28 36 40 38 42 44 42 46 44 41 35 34 39 40 36 23 27 19 17 16 18 21 14 5 6 32 24 31 25 24 23 26 26 22 24 20 15 10 16 18 17
12 22 30 37 43 36 35 37 42 42 38 42 41 28 34 43 29 31 29 14 12 20 11 25 12 11 5 28 15 41 30 28 23 23 34 26 20 14 12 16 15 21 23
Wind_Direction_850mb
240 238 238 237 246 241 252 260 246 245 250 280 289 308 287 301 292 280 281 282 288 301 284 294 291 291 297 301 298 296 301 312 313 308 302 305 327 298 257 277 261 261 271
235 232 239 239 256 245 251 258 261 284 276 271 252 274 283 286 300 285 278 285 293 294 274 280 280 291 295 293 298 302 303 308 323 312 316 323 329 286 254 287 264 258 261
218 217 222 232 251 260 259 266 288 288 284 248 250 265 256 271 284 294 279 296 294 306 303 283 280 280 283 288 296 292 300 299 310 308 314 313 305 312 315 300 271 261 260
157 194 192 257 247 284 336 302 298 303 282 277 243 281 251 265 274 279 281 284 285 291 296 287 270 283 278 279 290 293 297 296 303 302 298 291 308 317 313 313 309 275 265
130 182 193 36 70 354 23 10 10 339 317 306 252 282 256 256 265 273 259 273 289 286 281 288 274 289 272 277 288 298 295 295 300 294 297 288 294 299 301 307 310 302 275
111 119 62 44 53 36 18 20 7 359 330 314 311 297 262 255 263 277 278 279 279 286 284 287 288 300 291 283 297 295 294 296 299 294 283 288 290 306 311 309 306 307 295
91 87 75 60 54 20 6 5 32 21 12 343 331 310 311 273 264 264 275 278 274 279 284 288 301 318 307 303 302 290 289 301 310 303 297 288 292 298 307 317 312 307 299
47 12 358 356 352 21 26 7 358 347 351 349 342 335 343 310 285 260 265 268 261 259 274 277 289 292 282 281 293 294 305 304 305 304 308 298 301 296 308 314 309 299 299
290 314 42 61 49 13 358 349 348 356 351 334 337 344 340 327 306 281 253 279 273 282 262 259 257 285 265 292 279 282 284 293 296 300 304 307 310 308 308 315 298 280 295
48 45 27 17 356 2 7 24 19 8 359 3 2 349 343 340 322 301 278 271 279 258 265 263 262 271 268 272 282 289 279 289 291 314 331 329 327 323 328 312 308 273 280
40 33 12 13 14 0 345 341 350 350 336 337 341 341 342 337 343 323 291 278 279 255 270 261 267 257 264 263 280 290 286 295 330 327 347 349 344 346 351 352 332 298 281
17 17 348 342 328 328 311 308 321 323 327 329 342 341 346 338 338 327 319 277 271 265 261 256 270 266 260 258 269 254 273 264 298 324 349 355 2 5 8 11 16 326 265
26 6 348 340 320 320 314 329 321 329 328 329 328 334 330 333 341 334 329 287 266 269 247 255 254 245 259 239 245 250 269 237 282 337 350 7 9 17 11 15 28 37 73
52 25 350 327 355 8 358 347 334 326 322 325 325 330 334 333 338 338 330 308 283 273 251 248 246 256 252 249 236 230 253 242 225 64 20 21 23 35 36 6 59 82 89
17 354 349 5 348 337 334 331 330 327 331 336 339 334 335 325 338 338 339 315 286 280 277 241 237 246 237 216 221 243 215 204 170 110 14 29 29 40 50 59 107 112 98
355 24 32 21 9 350 346 346 339 334 331 326 327 331 344 340 343 344 336 331 267 266 280 252 244 218 241 226 221 232 251 226 171 168 352 44 47 55 65 76 108 95 90
44 26 15 9 5 359 347 347 338 332 338 339 348 343 336 338 335 341 342 342 328 302 271 255 246 221 215 209 209 224 245 218 202 203 91 105 72 60 87 103 106 79 107
25 11 359 354 342 340 342 341 341 342 338 336 349 350 340 340 342 338 339 342 324 312 288 261 249 216 238 199 207 213 226 222 196 203 139 157 91 67 68 128 103 71 89
16 3 355 342 333 340 345 339 344 337 341 347 341 339 340 339 344 340 348 337 334 306 294 236 243 225 218 214 214 224 227 213 208 194 157 163 165 69 153 135 121 73 98
10 5 356 339 333 339 341 347 344 338 339 341 344 346 332 336 344 343 343 340 334 322 308 265 227 220 210 211 205 213 212 195 192 182 181 216 279 236 195 167 164 185 112
10 1 344 352 2 351 347 352 348 345 349 342 338 342 343 348 344 344 352 353 347 324 341 233 266 240 204 193 205 215 209 204 211 214 201 214 214 235 188 192 163 172 171
2 3 344 357 349 352 346 344 342 346 345 350 346 340 353 353 349 341 347 1 18 8 328 327 244 289 214 199 206 205 207 211 216 221 232 238 221 225 186 196 217 217 217
11 352 348 348 354 348 345 346 352 351 353 354 1 357 356 355 343 338 343 342 357 12 12 358 262 269 210 205 200 202 196 205 220 229 253 220 213 210 230 209 202 194 176
359 347 349 358 358 343 339 350 356 344 338 341 346 355 354 346 359 353 349 332 350 2 5 350 349 44 179 210 197 194 199 208 214 214 189 167 190 219 237 234 226 219 195
344 336 343 351 353 349 338 343 346 345 346 343 344 343 357 354 351 347 359 354 337 337 1 8 358 314 352 191 194 189 199 209 205 202 192 197 218 229 248 235 218 220 214
323 332 334 342 343 347 337 343 346 340 340 350 351 350 354 351 355 1 5 357 358 356 17 25 29 1 302 153 194 195 203 211 220 204 211 218 224 239 221 243 232 194 183